TimeEDT,TemperatureF,Dew PointF,Humidity,Sea Level PressureIn,VisibilityMPH,Wind Direction,Wind SpeedMPH,Gust SpeedMPH,PrecipitationIn,Events,Conditions,WindDirDegrees,DateUTC
12:54 AM,61.0,59.0,93,30.12,10.0,Calm,Calm,-,N/A,,Clear,0,2013-08-24 04:54:00
1:54 AM,62.1,59.0,90,30.12,10.0,West,3.5,-,N/A,,Partly Cloudy,280,2013-08-24 05:54:00
2:54 AM,61.0,57.9,90,30.14,9.0,WSW,3.5,-,N/A,,Clear,240,2013-08-24 06:54:00
3:54 AM,59.0,57.0,93,30.16,10.0,Calm,Calm,-,N/A,,Partly Cloudy,0,2013-08-24 07:54:00
4:54 AM,61.0,57.0,87,30.17,10.0,Calm,Calm,-,N/A,,Scattered Clouds,0,2013-08-24 08:54:00
5:54 AM,59.0,55.9,90,30.19,10.0,Calm,Calm,-,N/A,,Scattered Clouds,0,2013-08-24 09:54:00
6:54 AM,61.0,55.0,81,30.22,10.0,North,4.6,-,N/A,,Partly Cloudy,350,2013-08-24 10:54:00
7:54 AM,66.0,55.0,68,30.24,10.0,North,4.6,-,N/A,,Clear,10,2013-08-24 11:54:00
8:54 AM,70.0,55.0,59,30.25,10.0,ENE,9.2,-,N/A,,Clear,60,2013-08-24 12:54:00
9:54 AM,73.0,57.0,57,30.27,10.0,NE,9.2,-,N/A,,Clear,40,2013-08-24 13:54:00
10:54 AM,75.0,57.9,55,30.27,10.0,NE,8.1,16.1,N/A,,Clear,50,2013-08-24 14:54:00
11:54 AM,78.1,59.0,52,30.27,10.0,Variable,6.9,-,N/A,,Scattered Clouds,0,2013-08-24 15:54:00
12:54 PM,79.0,57.9,48,30.27,10.0,ENE,6.9,-,N/A,,Scattered Clouds,60,2013-08-24 16:54:00
1:54 PM,79.0,57.0,47,30.27,10.0,East,11.5,19.6,N/A,,Scattered Clouds,90,2013-08-24 17:54:00
2:54 PM,82.0,52.0,35,30.27,10.0,ENE,9.2,17.3,N/A,,Scattered Clouds,70,2013-08-24 18:54:00
3:54 PM,81.0,52.0,36,30.27,10.0,East,8.1,-,N/A,,Scattered Clouds,90,2013-08-24 19:54:00
4:54 PM,80.1,48.9,34,30.27,10.0,ESE,8.1,-,N/A,,Scattered Clouds,110,2013-08-24 20:54:00
5:54 PM,80.1,53.1,39,30.27,10.0,East,6.9,-,N/A,,Scattered Clouds,80,2013-08-24 21:54:00
6:54 PM,78.1,52.0,40,30.27,10.0,East,6.9,-,N/A,,Scattered Clouds,100,2013-08-24 22:54:00
7:54 PM,75.0,52.0,44,30.28,10.0,East,4.6,-,N/A,,Scattered Clouds,100,2013-08-24 23:54:00
8:54 PM,71.1,53.1,53,30.31,10.0,East,3.5,-,N/A,,Clear,100,2013-08-25 00:54:00
9:54 PM,69.1,57.0,65,30.33,10.0,Calm,Calm,-,N/A,,Clear,0,2013-08-25 01:54:00
10:54 PM,69.1,57.9,68,30.33,10.0,ESE,4.6,-,N/A,,Clear,120,2013-08-25 02:54:00
11:54 PM,66.0,55.0,68,30.35,10.0,ESE,4.6,-,N/A,,Clear,110,2013-08-25 03:54:00